Provo, UT

6:07 AM MDT on May 25, 2017 (GMT -0600)
Provo Municipal

Weather History for KPVU - January, 2013

Change the Weather History Date:

Thursday, January 24, 2013

  Actual Average Record
Temperature  
Mean Temperature 24 °F -  
Max Temperature 33 °F 36 °F 51 °F (2001)
Min Temperature 15 °F 22 °F -2 °F (1985)
Degree Days  
Heating Degree Days 41    
Moisture  
Dew Point 24 °F    
Average Humidity 92    
Maximum Humidity 100    
Minimum Humidity 80    
Precipitation  
Precipitation 0.00 in - - ()
Sea Level Pressure  
Sea Level Pressure 30.28 in    
Wind  
Wind Speed 2 mph (NNW)    
Max Wind Speed 12 mph    
Max Gust Speed 17 mph    
Visibility 2 miles    
Events Rain    
Averages and records for this station are not official NWS values.
T = Trace of Precipitation, MM = Missing Value Source: NWS Daily Summary

Daily Weather History Graph

Daily Weather History Graph

Search for Another Location

Airport or City:

Trip Planner

Search our weather history database for the weather conditions in past years. The results will help you decide how hot, cold, wet, or windy it might be!

Date:

Astronomy

Jan. 24, 2013 Rise Set
Actual Time 7:42 AM MST 5:36 PM MST
Civil Twilight 7:12 AM MST 6:05 PM MST
Nautical Twilight 6:40 AM MST 6:38 PM MST
Astronomical Twilight 6:07 AM MST 7:10 PM MST
Moon 3:41 PM MST (1/24) 5:42 AM MST (1/24)
Length of Visible Light 10h 52m
Length of Day
9h 54m
Waxing Gibbous, 95% of the Moon is Illuminated
Jan 24
Waxing Gibbous
Jan 26
Full
Feb 3
Last Quarter
Feb 10
New
Feb 17
First Quarter

Hourly Weather History & Observations

Time (MST) Temp. Windchill Dew Point Humidity Pressure Visibility Wind Dir Wind Speed Gust Speed Precip Events Conditions
12:15 AM 15.8 °F - 15.8 °F 100% 30.28 in 2.0 mi Calm Calm - N/A   Clear
12:35 AM 17.6 °F - 15.8 °F 93% 30.27 in 2.0 mi Calm Calm - N/A   Mostly Cloudy
12:55 AM 17.6 °F - 17.6 °F 100% 30.26 in 2.0 mi Calm Calm - N/A   Mostly Cloudy
1:35 AM 19.4 °F - 15.8 °F 86% 30.25 in 2.0 mi Calm Calm - N/A   Scattered Clouds
1:55 AM 19.4 °F 14.3 °F 17.6 °F 93% 30.24 in 2.0 mi NNE 3.5 mph - N/A   Clear
2:15 AM 19.4 °F 10.4 °F 15.8 °F 86% 30.24 in 2.5 mi WNW 6.9 mph - N/A   Mostly Cloudy
2:35 AM 19.4 °F 12.8 °F 15.8 °F 86% 30.25 in 3.0 mi NW 4.6 mph - N/A   Scattered Clouds
2:55 AM 21.2 °F - 17.6 °F 86% 30.28 in 3.0 mi Calm Calm - N/A   Partly Cloudy
3:15 AM 21.2 °F 10.9 °F 17.6 °F 86% 30.28 in 2.5 mi SSE 9.2 mph - N/A   Clear
3:35 AM 19.4 °F - 17.6 °F 93% 30.26 in 2.0 mi Calm Calm - N/A   Clear
3:55 AM 21.2 °F - 17.6 °F 86% 30.26 in 2.5 mi Calm Calm - N/A   Clear
4:15 AM 21.2 °F - 19.4 °F 93% 30.26 in 2.5 mi Calm Calm - N/A   Clear
4:35 AM 21.2 °F - 19.4 °F 93% 30.25 in 2.0 mi Calm Calm - N/A   Mostly Cloudy
4:55 AM 21.2 °F - 17.6 °F 86% 30.25 in 2.5 mi Calm Calm - N/A   Mostly Cloudy
5:15 AM 21.2 °F 13.6 °F 19.4 °F 93% 30.24 in 3.0 mi North 5.8 mph - N/A   Scattered Clouds
5:35 AM 23.0 °F 17.0 °F 21.2 °F 93% 30.26 in 3.0 mi NNE 4.6 mph - N/A   Mostly Cloudy
5:55 AM 23.0 °F 15.8 °F 21.2 °F 93% 30.26 in 3.0 mi North 5.8 mph - N/A   Scattered Clouds
6:15 AM 24.8 °F 15.3 °F 21.2 °F 86% 30.26 in 3.0 mi NNW 9.2 mph - N/A   Mostly Cloudy
6:35 AM 24.8 °F 14.0 °F 21.2 °F 86% 30.27 in 3.0 mi West 11.5 mph 17.3 mph N/A   Overcast
6:50 AM 24.8 °F 15.3 °F 19.4 °F 80% 30.27 in 5.0 mi NW 9.2 mph - N/A Rain Light Freezing Rain
6:55 AM 24.8 °F 14.6 °F 19.4 °F 80% 30.26 in 3.0 mi NNW 10.4 mph - N/A   Mostly Cloudy
7:50 AM 24.8 °F - 23.0 °F 93% 30.28 in 2.0 mi Calm Calm - N/A Rain Light Freezing Rain
8:55 AM 26.6 °F - 24.8 °F 93% 30.28 in 2.0 mi Calm Calm - N/A Rain Light Freezing Rain
10:50 AM 28.4 °F - 26.6 °F 93% 30.32 in 2.0 mi Calm Calm - N/A Rain Light Freezing Rain
11:50 AM 30.2 °F - 28.4 °F 93% 30.32 in 1.5 mi Calm Calm - N/A   Overcast
1:50 PM 32.0 °F - 30.2 °F 93% 30.28 in 1.5 mi Calm Calm - N/A   Overcast
2:47 PM 32.0 °F - 30.2 °F 93% 30.27 in 1.0 mi Calm Calm - N/A   Overcast
3:47 PM 32.0 °F - 30.2 °F 93% 30.28 in 1.0 mi Calm Calm - N/A   Overcast
4:50 PM 33.8 °F - 32.0 °F 93% 30.29 in 1.0 mi Calm Calm - N/A   Overcast
5:47 PM 32.0 °F - 30.2 °F 93% 30.31 in 0.8 mi Calm Calm - N/A   Overcast
6:24 PM 32.0 °F - 30.2 °F 93% 30.31 in 1.2 mi Calm Calm - N/A   Overcast
6:54 PM 33.8 °F - 30.2 °F 87% 30.31 in 1.2 mi Calm Calm - N/A   Overcast
7:55 PM 32.0 °F - 30.2 °F 93% 30.31 in 1.5 mi Calm Calm - N/A   Overcast
8:55 PM 32.0 °F - 30.2 °F 93% 30.30 in 1.5 mi Calm Calm - N/A   Overcast
9:15 PM 32.0 °F 27.5 °F 30.2 °F 93% 30.30 in 1.5 mi West 4.6 mph - N/A   Overcast
9:35 PM 32.0 °F - 30.2 °F 93% 30.31 in 1.8 mi Calm Calm - N/A   Overcast
9:55 PM 32.0 °F - 30.2 °F 93% 30.32 in 1.5 mi Calm Calm - N/A   Overcast
10:15 PM 32.0 °F - 32.0 °F 100% 30.33 in 1.5 mi Calm Calm - N/A   Overcast
10:35 PM 32.0 °F - 32.0 °F 100% 30.33 in 1.8 mi Calm Calm - N/A   Overcast
10:55 PM 32.0 °F - 30.2 °F 93% 30.33 in 1.5 mi Calm Calm - N/A   Overcast
11:15 PM 32.0 °F 26.4 °F 30.2 °F 93% 30.33 in 1.2 mi East 5.8 mph - N/A   Overcast
11:35 PM 32.0 °F - 32.0 °F 100% 30.33 in 1.2 mi Calm Calm - N/A   Overcast
11:55 PM 32.0 °F - 32.0 °F 100% 30.32 in 1.5 mi Calm Calm - N/A   Overcast